Regional Weather Roundup
Issued by NWS

Home | Current Version | Previous Version | Text Only | Print | Product List | Glossary On
Versions: 1 2 3 4 5 6 7 8 9 10 11 12 13 14 15 16 17 18 19 20 21 22 23 24 25 26 27 28 29 30 31 32 33 34 35 36 37 38 39 40 41 42 43 44 45 46 47 48 49 50
000
ASUS46 KPQR 271110
RWROR

OREGON REGIONAL WEATHER ROUNDUP
NATIONAL WEATHER SERVICE PORTLAND OR
400 AM PDT WED MAY 27 2015

NOTE: "FAIR" INDICATES FEW OR NO CLOUDS BELOW 12,000 FEET WITH
NO SIGNIFICANT WEATHER AND/OR OBSTRUCTIONS TO VISIBILITY.

ORZ001>013-271200-
NORTHWEST OREGON


CITY           SKY/WX    TMP DP  RH WIND       PRES   REMARKS
ASTORIA        CLOUDY    52  50  93 SW5       30.08S
NEWPORT        CLOUDY    52  50  93 N6        30.11S
PORTLAND       CLEAR     56  52  86 NW5       30.05S
VANCOUVER WA   CLEAR     55  50  83 N3        30.05S
SCAPPOOSE      CLEAR     53  49  86 N7        30.04S
HILLSBORO      CLEAR     50  47  89 CALM      30.05R
AURORA         CLEAR     51  48  89 CALM      30.06S
MCMINNVILLE    CLEAR     50  47  89 W3        30.06S
SALEM          CLEAR     51  48  89 CALM      30.05R
CORVALLIS      CLEAR     52  46  82 NW5       30.06S
EUGENE         FOG       46  45  96 CALM      30.06R VSB 3/4
$$

ORZ021-028-271200-
SOUTHWEST OREGON


CITY           SKY/WX    TMP DP  RH WIND       PRES   REMARKS
NORTH BEND     CLOUDY    54  52  94 N8        30.09S
BROOKINGS      CLOUDY    50  50 100 CALM      30.05S FOG
ROSEBURG       CLEAR     53  48  83 CALM      30.05R
SEXTON SUMMIT  CLEAR     49  43  80 N9        30.05S
MEDFORD        CLEAR     50  44  80 NE3       30.03R
$$

ORZ014>016-041-271200-
COLUMBIA GORGE


CITY           SKY/WX    TMP DP  RH WIND       PRES   REMARKS
TROUTDALE      CLEAR     53  49  86 CALM      30.04S
THE DALLES     CLEAR     56  46  69 SW5       30.00R
$$

ORZ029>031-041-044-049-050-061>064-502-503-505>511-271200-
EASTERN OREGON


CITY           SKY/WX    TMP DP  RH WIND       PRES   REMARKS
REDMOND        PTCLDY    42  40  92 CALM      30.04S
BEND           CLEAR     45  39  81 CALM      30.06R
PRINEVILLE     CLEAR     46  41  81 CALM      30.04S
KLAMATH FALLS  CLEAR     36  33  89 CALM      30.05S
LAKEVIEW       CLEAR     41  36  81 N7        30.07S
HERMISTON      PTCLDY    52  49  89 CALM      29.98R
PENDLETON      CLEAR     49  47  93 E5        29.99R
JOHN DAY       CLEAR     51  43  75 NW3       30.04R
MEACHAM        PTCLDY    37  35  92 CALM      30.03S
LA GRANDE      PTCLDY    46  36  66 CALM      30.00S
BAKER CITY     CLEAR     41  40  96 CALM      30.01S
BURNS          PTCLDY    40  36  86 NW5       30.03S
ROME             N/A     46  41  82 S6        30.00S
ONTARIO        PTCLDY    55  49  80 CALM      29.97R
$$


USA.gov is the U.S. government's official web portal to all federal, state and local government web resources and services.